Dewpoint
26 25 24 24 22 21 20 21 22 22 19 18 18 19 20 20 18 23 21 20 20 20 20 20 19 19 16 16 16 17 16 17 21 20 17 18 20 22 25 27 25 27 29
24 23 24 23 21 19 19 21 23 19 18 17 18 19 20 19 17 21 19 20 20 19 18 17 16 14 15 15 15 16 16 16 16 18 20 18 18 18 21 26 27 26 27
22 22 22 21 19 18 19 21 19 17 17 18 19 19 18 18 17 18 19 20 20 19 17 16 15 14 13 13 15 15 15 15 17 18 18 19 18 18 17 21 20 21 23
20 18 19 19 18 17 19 18 17 17 17 17 19 18 18 17 16 19 20 20 19 18 17 15 14 13 13 14 15 15 15 17 17 18 18 18 19 19 18 19 20 19 20
19 17 18 20 19 18 18 17 17 16 17 17 17 17 17 16 15 20 19 19 17 15 13 12 12 13 15 15 16 17 18 18 19 19 18 18 18 18 16 18 20 20 21
19 17 19 18 16 18 16 16 14 16 16 16 16 16 16 15 18 20 19 17 16 13 12 11 11 12 13 16 17 18 19 20 20 19 19 19 18 17 18 18 17 20 19
18 17 17 16 15 17 15 13 14 15 15 15 15 16 15 16 19 18 18 16 14 13 11 11 11 11 14 16 18 20 20 20 21 22 22 21 19 20 20 17 16 16 18
18 16 16 15 14 15 13 12 14 13 14 15 15 15 16 16 18 17 17 15 14 13 13 12 12 12 14 17 19 19 19 20 20 23 27 27 26 23 23 20 16 15 18
16 15 14 14 14 14 11 12 13 13 14 15 14 15 15 16 16 17 17 14 13 13 14 13 13 13 14 18 20 21 20 21 23 26 27 27 28 28 25 21 20 19 18
16 15 15 15 14 12 12 13 13 14 13 13 13 15 17 16 15 16 17 15 15 15 16 14 13 14 15 17 20 20 20 22 25 26 26 24 22 26 26 25 23 19 18
17 16 15 14 14 12 14 12 13 13 13 15 15 17 17 16 15 16 16 16 16 17 15 15 14 14 14 16 18 19 20 23 24 25 26 25 23 22 22 23 21 20 18
15 14 14 13 11 12 12 11 13 13 13 14 16 16 17 15 15 16 16 17 17 16 16 16 16 12 12 15 16 17 18 23 23 23 23 24 26 25 25 24 23 23 23
14 12 12 11 11 13 10 11 13 13 14 14 15 15 15 15 15 16 18 17 17 17 17 16 13 11 12 13 15 16 18 21 22 21 21 22 25 27 29 27 27 26 26
12 11 10 10 11 12 10 13 14 14 13 13 14 14 15 15 15 15 16 17 16 16 15 14 11 11 11 12 14 15 17 19 19 21 21 22 23 23 25 27 27 27 26
11 9 9 10 11 10 9 12 13 15 14 14 14 15 14 14 15 14 15 16 16 15 13 12 11 11 10 10 11 12 15 16 17 18 20 20 20 21 21 24 25 27 28
10 9 10 10 12 9 12 14 16 15 15 14 14 13 13 13 13 12 12 12 12 12 11 11 11 11 10 10 10 10 11 13 14 16 18 18 18 17 18 20 21 22 22
11 11 11 13 13 10 13 14 13 13 13 12 12 11 12 11 11 11 11 10 9 9 9 9 10 10 10 10 10 10 9 10 11 13 15 17 17 17 17 15 15 17 18
12 13 14 14 13 13 14 14 13 12 11 10 10 10 9 9 10 9 8 6 5 5 6 6 7 9 10 10 9 9 9 9 10 10 13 14 16 16 17 16 14 14 14
13 14 14 13 12 13 15 14 12 12 11 9 8 8 8 9 9 8 8 7 6 5 4 4 5 6 7 9 10 9 9 9 9 9 10 13 14 15 15 16 16 14 13
13 12 12 10 10 14 14 13 12 12 11 10 9 8 8 7 8 7 8 8 7 5 4 3 4 4 6 6 9 10 9 8 8 9 9 11 12 12 13 14 15 15 13
14 12 10 5 9 14 14 13 12 12 11 10 9 10 10 7 6 6 6 6 5 4 4 5 4 4 5 4 4 8 8 8 8 8 8 9 9 10 11 12 13 13 12
13 10 6 6 11 14 13 13 12 12 11 10 9 9 9 9 7 6 5 6 7 6 5 4 4 4 3 2 3 4 7 8 8 8 8 8 8 8 8 9 11 12 12
10 8 4 6 11 14 14 13 12 12 11 11 10 10 9 8 8 8 7 8 7 6 6 5 5 4 2 2 2 2 3 7 8 9 8 7 7 7 7 7 8 9 10
11 9 6 8 13 14 14 14 13 12 11 11 12 11 10 9 9 9 9 9 8 7 6 6 5 4 2 1 1 -0 -0 3 8 7 8 7 5 6 6 7 6 7 8
13 11 10 10 12 14 14 13 12 12 12 12 12 11 10 11 9 9 9 9 8 7 5 5 5 3 2 1 0 -1 0 1 5 7 6 6 5 5 5 5 6 6 7
12 8 9 11 13 14 14 14 12 12 12 12 12 12 11 10 10 10 10 9 8 7 6 4 4 3 2 -0 -2 -2 -2 -1 1 4 4 4 4 4 5 5 5 6 6
Wind_Speed
11 10 10 9 9 9 8 6 6 6 7 8 8 8 8 9 11 9 11 10 13 13 13 14 16 16 15 16 16 17 19 20 25 29 26 24 26 30 30 26 26 25 22
11 10 10 9 8 7 7 5 5 6 7 7 7 8 9 10 11 9 12 11 12 14 15 17 17 16 18 17 16 19 20 22 23 32 29 27 28 28 32 32 24 23 24
11 10 9 7 6 5 4 4 5 6 6 6 6 8 9 10 9 9 11 12 13 14 15 17 18 18 19 18 19 20 20 21 23 24 30 26 27 26 27 29 28 26 25
10 9 8 6 5 3 3 4 4 5 6 6 6 7 8 9 7 10 12 14 14 14 15 17 18 18 19 22 22 22 22 24 25 26 27 27 26 26 25 26 27 24 25
11 9 8 6 4 3 3 2 3 4 5 7 6 7 7 7 7 12 14 15 15 17 17 17 17 21 24 23 21 25 26 24 25 26 29 27 29 25 25 24 24 24 23
12 10 8 7 5 3 1 2 3 4 5 6 6 7 8 7 9 13 15 17 16 16 18 18 20 21 21 26 26 27 27 29 32 30 32 32 37 31 25 24 24 25 22
12 10 9 7 5 4 1 3 4 5 6 6 7 8 8 9 10 15 17 17 16 17 18 19 20 19 23 24 30 33 32 32 33 34 37 41 40 35 28 28 25 25 24
13 11 9 7 5 5 2 3 4 6 7 8 8 9 9 8 11 16 18 16 16 17 19 20 21 23 22 25 31 35 34 32 32 29 31 36 37 32 27 26 26 26 23
13 11 9 7 6 4 3 4 5 7 7 7 8 9 10 11 12 16 18 17 17 19 19 20 21 22 24 31 29 31 34 33 31 35 33 35 34 32 25 19 21 20 22
14 11 9 7 5 4 2 3 5 6 8 9 9 8 9 11 12 15 18 17 18 19 20 20 22 22 29 32 26 26 28 31 33 33 29 26 21 13 25 25 24 24 21
12 10 8 6 5 3 2 3 4 6 8 9 9 9 9 10 12 15 18 18 18 21 21 21 21 28 32 31 28 21 27 31 27 24 23 19 16 11 14 17 21 22 22
13 10 8 6 5 4 4 4 4 6 8 9 10 9 9 11 11 14 19 19 22 19 21 20 22 31 30 28 24 28 31 25 21 23 23 24 22 15 15 16 18 18 19
13 11 9 7 6 5 5 4 5 6 7 8 9 10 12 12 12 15 18 22 20 19 18 23 29 27 25 20 23 25 22 20 21 22 23 22 22 23 15 15 17 18 19
14 11 9 8 7 5 4 4 5 6 7 7 8 11 13 13 13 14 18 19 20 19 20 20 20 21 18 18 17 18 18 19 21 21 21 21 21 23 22 23 11 11 14
13 11 9 8 8 6 6 5 5 5 6 8 9 10 12 14 14 20 21 19 18 18 20 16 16 17 17 18 18 18 18 19 20 21 20 21 21 21 22 22 20 17 9
13 11 10 8 7 6 6 5 5 6 7 8 8 8 11 13 16 20 22 22 22 20 16 15 17 17 17 18 18 19 18 19 20 20 20 20 21 20 22 20 20 19 17
13 11 9 9 7 7 6 6 6 4 6 6 6 9 10 13 15 18 20 21 18 15 13 15 16 17 18 18 18 18 19 18 19 18 19 19 19 18 19 19 19 20 20
12 11 9 9 8 7 6 5 5 6 7 6 5 8 8 11 14 17 17 17 14 13 13 15 16 17 18 18 18 19 19 19 17 18 17 17 18 18 17 18 17 18 18
14 11 10 8 8 7 6 5 5 6 8 10 11 8 9 12 14 13 12 10 12 14 15 16 16 17 17 18 18 18 18 18 18 18 17 15 16 17 16 16 17 17 17
13 12 11 9 7 8 7 6 6 6 7 7 8 9 11 13 13 13 11 11 12 14 15 16 16 16 17 18 18 18 18 18 18 17 16 16 15 15 16 16 16 17 16
13 12 11 8 9 8 7 7 6 7 7 8 9 7 8 10 12 12 13 12 13 14 15 15 16 17 17 17 17 18 18 18 18 17 17 16 15 16 16 16 15 15 16
13 12 11 10 9 9 8 7 7 8 8 9 9 9 9 10 11 12 13 13 13 13 13 15 16 16 16 17 17 18 19 19 18 17 17 17 17 17 16 16 16 15 16
13 12 10 9 9 8 8 8 8 8 9 9 9 10 11 12 12 13 13 14 14 14 14 14 16 17 16 16 16 17 18 19 18 18 19 19 18 17 16 17 17 16 15
14 13 11 9 9 9 9 9 8 9 11 10 10 11 12 13 13 14 14 14 15 15 14 15 16 19 19 18 17 17 17 18 18 19 19 18 19 18 17 17 17 17 17
13 12 11 9 9 10 9 9 9 10 10 10 11 12 13 13 14 14 14 15 15 15 16 16 16 18 20 22 23 23 21 22 21 20 19 19 20 20 19 18 18 18 17
13 12 10 8 9 9 9 9 9 10 10 10 11 12 13 13 14 14 15 15 16 17 19 17 18 22 23 21 21 21 22 23 22 21 19 18 18 17 16 18 18 17 16
Wind_Direction
122 119 114 109 102 96 86 75 69 60 31 16 7 11 13 8 358 350 350 345 341 339 338 331 325 325 320 317 315 311 309 307 300 301 300 300 301 298 294 288 291 284 286
132 125 116 117 107 90 77 71 58 40 24 5 4 12 7 356 349 343 337 337 336 335 333 328 324 325 319 315 313 308 305 302 297 298 299 301 296 291 286 291 288 289 286
139 130 128 125 107 92 84 75 48 18 7 2 9 4 353 347 340 338 332 329 330 330 327 322 320 319 316 315 310 306 307 303 298 294 294 294 290 288 293 287 279 277 281
143 140 138 135 131 118 95 65 29 5 353 353 359 351 345 340 336 333 328 326 324 323 322 318 315 313 311 310 309 307 306 303 297 292 286 289 286 285 282 283 285 286 285
156 152 150 152 153 142 117 45 3 354 345 340 339 344 340 337 346 334 328 322 322 323 322 318 313 311 307 305 306 307 307 300 294 289 285 285 281 281 278 285 289 288 280
168 163 161 167 173 163 152 324 333 335 333 329 338 338 337 336 337 329 328 321 321 321 322 320 318 315 313 312 309 303 295 292 288 285 282 276 275 273 273 271 275 277 284
174 170 173 178 185 180 205 311 323 324 324 335 340 334 333 331 334 332 331 319 320 323 324 323 319 317 317 320 317 311 304 295 281 279 274 269 268 265 267 266 267 268 271
179 178 182 189 192 184 241 306 313 318 328 337 334 328 326 330 330 333 328 317 319 324 326 321 319 317 319 325 319 316 315 313 309 299 286 276 265 259 252 264 265 271 273
185 187 190 196 194 196 263 303 317 318 327 330 326 322 323 323 339 331 326 324 323 325 325 322 322 318 321 322 320 317 315 315 320 314 310 311 307 244 239 255 258 258 263
190 191 189 191 194 213 259 297 310 315 319 322 320 319 320 318 334 328 327 323 322 325 324 322 323 324 323 324 324 322 316 321 324 324 326 330 330 277 229 241 252 260 265
180 180 184 187 198 212 242 281 299 312 315 314 317 315 312 325 325 330 327 326 327 325 325 322 323 324 324 323 329 325 322 319 325 331 337 327 316 290 260 251 251 254 258
176 182 188 192 197 206 240 265 294 308 309 314 319 319 321 325 329 327 327 324 329 327 322 320 319 322 321 321 327 329 332 326 340 342 346 350 342 297 267 256 249 249 253
178 189 192 196 206 213 241 258 281 291 301 311 316 319 323 328 328 330 319 325 330 328 327 318 319 321 320 321 327 332 337 336 343 349 348 346 343 343 305 264 250 247 248
184 189 193 204 209 222 237 250 265 283 299 307 315 318 319 323 327 331 327 328 332 331 331 322 320 316 316 313 323 337 343 344 339 342 344 339 344 353 354 353 287 257 246
186 189 197 207 212 228 235 249 259 276 286 301 309 312 315 315 322 320 323 325 326 332 325 320 326 332 331 334 332 337 336 343 346 340 341 348 350 353 356 356 356 355 321
187 193 201 204 211 223 234 244 234 273 276 289 299 305 305 303 314 317 320 321 326 331 322 323 327 331 331 332 330 329 329 333 341 339 340 348 350 352 353 357 0 2 0
191 193 194 198 210 220 232 255 284 289 284 287 303 316 310 311 319 322 324 324 324 327 324 324 324 326 327 329 328 327 325 324 326 331 335 341 345 345 352 354 359 359 357
186 186 192 198 207 213 227 255 284 298 304 304 295 309 317 325 326 326 328 325 329 332 323 321 321 324 324 325 324 324 322 321 322 326 324 334 338 341 345 352 355 355 352
182 185 188 195 201 208 218 238 266 284 299 312 323 327 334 330 323 322 327 326 323 321 323 320 319 318 319 321 320 318 316 316 317 316 315 322 330 336 336 343 345 350 348
181 176 180 191 197 209 219 238 256 267 284 295 303 312 325 328 329 329 329 327 323 318 318 317 316 316 315 316 317 314 312 314 316 314 314 310 317 323 325 332 337 339 342
177 175 179 192 206 213 222 238 254 264 280 288 295 297 299 303 308 312 315 316 313 312 313 312 312 313 312 313 313 313 311 309 308 309 308 305 309 309 313 316 322 327 329
172 171 180 201 207 212 223 236 251 260 275 283 296 302 295 290 298 305 309 310 307 304 304 306 307 308 310 310 310 308 308 306 305 305 303 302 302 301 302 304 306 312 318
169 172 184 200 209 215 220 236 249 258 271 277 290 301 305 301 299 301 305 307 306 305 305 303 303 305 308 307 305 302 300 301 302 303 299 297 296 295 297 296 295 300 305
172 179 190 202 207 216 227 241 254 259 267 278 287 291 292 298 299 299 300 302 305 303 300 299 299 300 303 304 302 302 299 297 299 296 293 290 290 289 289 290 289 290 293
175 182 195 204 212 219 233 245 259 264 268 278 285 287 288 293 297 298 300 300 302 303 301 299 299 302 303 304 300 299 297 297 296 295 289 284 281 283 281 280 282 285 285
182 191 199 205 217 223 233 247 260 261 269 279 284 285 287 290 295 297 300 301 302 303 302 301 300 302 304 304 301 300 299 299 298 293 288 280 277 276 276 277 279 280 282